Lyndonville, VT

8:31 PM EDT on August 28, 2016 (GMT -0400)
Lyndonville

Weather History for KCDA - November, 2013

Change the Weather History Date:

Sunday, November 3, 2013

  Actual Average (K1V4) Record (K1V4)
Temperature  
Mean Temperature 30 °F 41 °F  
Max Temperature 35 °F 50 °F 71 °F (1990)
Min Temperature 24 °F 32 °F 6 °F (2002)
Degree Days  
Heating Degree Days 35 24  
Month to date heating degree days 71  
Since 1 July heating degree days 858  
Cooling Degree Days 0 0  
Month to date cooling degree days 0  
Year to date cooling degree days 433  
Moisture  
Dew Point 16 °F    
Average Humidity 58    
Maximum Humidity 78    
Minimum Humidity 39    
Precipitation  
Precipitation 0.00 in 0.13 in 2.15 in (1927)
Month to date precipitation 0.37  
Year to date precipitation 33.39  
Sea Level Pressure  
Sea Level Pressure 30.16 in    
Wind  
Wind Speed 10 mph (NNW)    
Max Wind Speed 15 mph    
Max Gust Speed 22 mph    
Visibility 10 miles    
Events      
T = Trace of Precipitation, MM = Missing Value Source: NWS Daily Summary

Daily Weather History Graph

Daily Weather History Graph

Search for Another Location

Airport or City:

Trip Planner

Search our weather history database for the weather conditions in past years. The results will help you decide how hot, cold, wet, or windy it might be!

Date:

Astronomy

Nov. 03, 2013 Rise Set
Actual Time 6:28 AM EST 4:33 PM EST
Civil Twilight 5:58 AM EST 5:04 PM EST
Nautical Twilight 5:23 AM EST 5:39 PM EST
Astronomical Twilight 4:49 AM EST 6:12 PM EST
Moon 6:29 AM EST (11/3) 4:45 PM EST (11/3)
Length of Visible Light 11h 06m
Length of Day
10h 05m
New Moon, 0% of the Moon is Illuminated
Nov 3
New Moon
Nov 10
First Quarter
Nov 17
Full
Nov 25
Last Quarter
Dec 2
New

Hourly Weather History & Observations

Time (EST) Temp. Windchill Dew Point Humidity Pressure Visibility Wind Dir Wind Speed Gust Speed Precip Events Conditions
12:15 AM 34.9 °F 26.2 °F 28.4 °F 77% 29.86 in 10.0 mi North 12.7 mph - N/A   Overcast
12:35 AM 34.0 °F 26.0 °F 27.5 °F 77% 29.87 in 10.0 mi NNW 10.4 mph 16.1 mph N/A   Overcast
12:55 AM 33.3 °F 25.7 °F 27.1 °F 78% 29.89 in 10.0 mi North 9.2 mph - N/A   Overcast
1:15 AM 32.5 °F 24.2 °F 25.9 °F 76% 29.91 in 10.0 mi NNW 10.4 mph 16.1 mph N/A   Overcast
1:35 AM 32.0 °F 23.0 °F 24.8 °F 75% 29.91 in 10.0 mi NNW 11.5 mph 16.1 mph N/A   Overcast
1:55 AM 31.8 °F 22.3 °F 23.7 °F 72% 29.91 in 10.0 mi NNW 12.7 mph 16.1 mph N/A   Overcast
1:15 AM 31.1 °F 22.4 °F 22.6 °F 71% 29.92 in 10.0 mi NNW 10.4 mph 18.4 mph N/A   Overcast
1:35 AM 30.7 °F 22.0 °F 21.7 °F 69% 29.93 in 10.0 mi NNW 10.4 mph 18.4 mph N/A   Overcast
1:55 AM 30.6 °F 21.8 °F 21.6 °F 69% 29.93 in 10.0 mi North 10.4 mph 17.3 mph N/A   Overcast
2:15 AM 29.8 °F 20.3 °F 20.7 °F 69% 29.94 in 10.0 mi North 11.5 mph 18.4 mph N/A   Mostly Cloudy
2:35 AM 29.3 °F 20.2 °F 19.4 °F 67% 29.95 in 10.0 mi North 10.4 mph 16.1 mph N/A   Mostly Cloudy
2:55 AM 28.8 °F 19.5 °F 19.4 °F 68% 29.96 in 10.0 mi NNW 10.4 mph - N/A   Scattered Clouds
3:15 AM 28.4 °F 19.7 °F 19.2 °F 69% 29.97 in 10.0 mi NNW 9.2 mph - N/A   Mostly Cloudy
3:35 AM 28.2 °F 19.5 °F 18.3 °F 66% 29.98 in 10.0 mi NNW 9.2 mph 18.4 mph N/A   Mostly Cloudy
3:55 AM 27.5 °F 18.6 °F 18.0 °F 67% 29.99 in 10.0 mi NNW 9.2 mph - N/A   Mostly Cloudy
4:15 AM 27.1 °F 17.5 °F 17.6 °F 67% 30.00 in 10.0 mi NNW 10.4 mph - N/A   Mostly Cloudy
4:35 AM 26.6 °F 19.1 °F 17.6 °F 69% 30.02 in 10.0 mi NNW 6.9 mph - N/A   Mostly Cloudy
4:55 AM 27.1 °F 18.2 °F 17.8 °F 68% 30.03 in 10.0 mi NNW 9.2 mph - N/A   Mostly Cloudy
5:15 AM 27.3 °F 18.4 °F 17.6 °F 67% 30.04 in 10.0 mi NNW 9.2 mph - N/A   Overcast
5:35 AM 27.3 °F 20.9 °F 17.6 °F 67% 30.05 in 10.0 mi NNW 5.8 mph - N/A   Overcast
5:55 AM 27.3 °F 18.4 °F 17.1 °F 65% 30.06 in 10.0 mi North 9.2 mph - N/A   Overcast
6:15 AM 27.1 °F 18.2 °F 17.4 °F 67% 30.07 in 10.0 mi NNW 9.2 mph - N/A   Overcast
6:35 AM 26.6 °F 16.8 °F 16.7 °F 66% 30.09 in 10.0 mi NNW 10.4 mph - N/A   Mostly Cloudy
6:55 AM 25.7 °F 17.1 °F 16.7 °F 69% 30.10 in 10.0 mi NNW 8.1 mph - N/A   Clear
7:15 AM 25.7 °F 18.0 °F 16.7 °F 69% 30.11 in 10.0 mi NNW 6.9 mph - N/A   Clear
7:35 AM 27.1 °F 18.9 °F 17.2 °F 66% 30.12 in 10.0 mi NNW 8.1 mph - N/A   Clear
7:55 AM 27.3 °F 16.1 °F 17.2 °F 66% 30.13 in 10.0 mi NNW 13.8 mph - N/A   Clear
8:15 AM 28.4 °F 18.5 °F 18.1 °F 65% 30.14 in 10.0 mi NNW 11.5 mph 16.1 mph N/A   Clear
8:35 AM 28.9 °F 19.8 °F 18.1 °F 64% 30.14 in 10.0 mi North 10.4 mph 16.1 mph N/A   Clear
8:55 AM 29.5 °F 19.3 °F 18.1 °F 63% 30.15 in 10.0 mi NNW 12.7 mph 18.4 mph N/A   Clear
9:15 AM 30.2 °F 21.3 °F 18.5 °F 62% 30.16 in 10.0 mi North 10.4 mph - N/A   Scattered Clouds
9:35 AM 30.2 °F 20.2 °F 18.1 °F 61% 30.16 in 10.0 mi NNW 12.7 mph 17.3 mph N/A   Clear
9:55 AM 32.0 °F 23.0 °F 18.9 °F 58% 30.16 in 10.0 mi NW 11.5 mph - N/A   Scattered Clouds
10:15 AM 31.6 °F 22.6 °F 17.6 °F 56% 30.18 in 10.0 mi NNW 11.5 mph 18.4 mph N/A   Scattered Clouds
10:35 AM 31.8 °F 23.3 °F 17.6 °F 56% 30.18 in 10.0 mi NNW 10.4 mph - N/A   Clear
10:55 AM 32.7 °F 23.0 °F 17.6 °F 54% 30.18 in 10.0 mi North 13.8 mph - N/A   Clear
11:15 AM 33.1 °F 24.4 °F 16.0 °F 50% 30.18 in 10.0 mi NW 11.5 mph - N/A   Clear
11:35 AM 33.1 °F 26.1 °F 15.1 °F 48% 30.18 in 10.0 mi NNW 8.1 mph - N/A   Clear
11:55 AM 33.6 °F 24.6 °F 15.4 °F 47% 30.18 in 10.0 mi NW 12.7 mph 17.3 mph N/A   Clear
12:15 PM 34.2 °F 26.2 °F 14.5 °F 45% 30.18 in 10.0 mi NW 10.4 mph 18.4 mph N/A   Clear
12:35 PM 34.3 °F 26.5 °F 15.6 °F 46% 30.18 in 10.0 mi NNW 10.4 mph 17.3 mph N/A   Clear
12:55 PM 34.0 °F 25.0 °F 14.2 °F 44% 30.18 in 10.0 mi North 12.7 mph 21.9 mph N/A   Clear
1:15 PM 35.1 °F 26.9 °F 14.7 °F 43% 30.18 in 10.0 mi NW 11.5 mph 18.4 mph N/A   Clear
1:35 PM 34.2 °F 24.4 °F 13.3 °F 42% 30.20 in 10.0 mi WNW 15.0 mph 19.6 mph N/A   Clear
1:55 PM 34.5 °F 26.2 °F 12.9 °F 41% 30.20 in 10.0 mi NNW 11.5 mph 20.7 mph N/A   Clear
2:15 PM 34.3 °F 25.0 °F 12.4 °F 40% 30.22 in 10.0 mi WNW 13.8 mph 19.6 mph N/A   Clear
2:35 PM 34.2 °F 25.2 °F 12.4 °F 41% 30.23 in 10.0 mi WNW 12.7 mph 18.4 mph N/A   Clear
2:55 PM 34.0 °F 24.6 °F 11.5 °F 39% 30.23 in 10.0 mi NNW 13.8 mph 17.3 mph N/A   Clear
3:15 PM 33.3 °F 24.1 °F 11.5 °F 41% 30.24 in 10.0 mi NW 12.7 mph 20.7 mph N/A   Clear
3:35 PM 32.9 °F 24.1 °F 10.9 °F 40% 30.25 in 10.0 mi NNW 11.5 mph 19.6 mph N/A   Clear
3:55 PM 32.4 °F 23.5 °F 11.5 °F 42% 30.26 in 10.0 mi North 11.5 mph 17.3 mph N/A   Clear
4:15 PM 31.8 °F 25.4 °F 12.7 °F 45% 30.27 in 10.0 mi NNW 6.9 mph 18.4 mph N/A   Clear
4:35 PM 30.7 °F 22.0 °F 12.2 °F 46% 30.28 in 10.0 mi North 10.4 mph 16.1 mph N/A   Clear
4:55 PM 29.7 °F 23.7 °F 13.6 °F 51% 30.29 in 10.0 mi NW 5.8 mph - N/A   Clear
5:15 PM 28.6 °F 22.4 °F 13.6 °F 54% 30.30 in 10.0 mi NW 5.8 mph - N/A   Clear
5:35 PM 28.2 °F 22.0 °F 13.6 °F 54% 30.31 in 10.0 mi NNW 5.8 mph - N/A   Clear
5:55 PM 27.9 °F 22.6 °F 13.6 °F 55% 30.32 in 10.0 mi NW 4.6 mph - N/A   Clear
6:15 PM 27.5 °F 22.2 °F 13.5 °F 56% 30.34 in 10.0 mi NNW 4.6 mph - N/A   Clear
6:35 PM 28.4 °F 22.2 °F 13.1 °F 53% 30.34 in 10.0 mi NNW 5.8 mph - N/A   Clear
6:55 PM 28.4 °F 23.3 °F 12.7 °F 52% 30.35 in 10.0 mi NNW 4.6 mph - N/A   Clear
7:15 PM 27.5 °F 21.1 °F 13.1 °F 55% 30.35 in 10.0 mi NNW 5.8 mph - N/A   Clear
7:35 PM 28.0 °F 22.8 °F 13.1 °F 54% 30.36 in 10.0 mi NNW 4.6 mph - N/A   Clear
7:55 PM 27.7 °F 22.4 °F 12.9 °F 54% 30.37 in 10.0 mi NNW 4.6 mph - N/A   Clear
8:15 PM 27.9 °F 21.5 °F 12.0 °F 52% 30.37 in 10.0 mi NW 5.8 mph - N/A   Clear
8:35 PM 26.6 °F 21.2 °F 12.2 °F 55% 30.38 in 10.0 mi NW 4.6 mph - N/A   Clear
8:55 PM 26.4 °F 19.8 °F 12.0 °F 55% 30.39 in 10.0 mi NNW 5.8 mph - N/A   Clear
9:15 PM 26.6 °F 20.0 °F 11.8 °F 54% 30.40 in 10.0 mi NW 5.8 mph - N/A   Clear
9:35 PM 25.9 °F 20.3 °F 12.0 °F 56% 30.40 in 10.0 mi NW 4.6 mph - N/A   Clear
9:55 PM 26.1 °F 21.9 °F 12.0 °F 55% 30.41 in 10.0 mi NW 3.5 mph - N/A   Clear
10:15 PM 26.1 °F 21.9 °F 12.0 °F 55% 30.41 in 10.0 mi NW 3.5 mph - N/A   Clear
10:35 PM 25.5 °F 21.3 °F 12.0 °F 57% 30.42 in 10.0 mi WNW 3.5 mph - N/A   Clear
10:55 PM 24.6 °F 18.8 °F 12.0 °F 59% 30.42 in 10.0 mi NW 4.6 mph - N/A   Clear